Jesus Hurtado

Olheiro - Leones
13 Fev 2028
Domingo
Processo

Personalidade

Adaptabilidade (12) Ambição (20) Controvérsia (5) Lealdade (3) Pressão (11) Profissionalismo (2) Espírito Esportivo (10) Temperamento (15)

Perfil

Estilo de Treinamento Democrático
Licença Continental C
Determinação 10
Gestão de Pessoas 5
Motivação 9
Disciplina 10
Satisfação no Trabalho
100%
Fadiga
0%
Função Olheiro
Salário 56.5K p/s
Contrato 14.03.2029

Desempenho

Comportamento Bom
Eficácia do Treinamento
21%
Desenvolvimento do Jogador
50%
Prevenção de Lesões
45%
Implementação Tática
35%

Eventos Recentes

Participou de uma reunião de recrutamento agora
Participou de uma reunião de recrutamento 7d atrás
Recomendou um alvo de transferência 7d atrás
Recomendou um alvo de transferência 7d atrás
Participou de uma reunião de recrutamento 14d atrás
Recomendou um alvo de transferência 14d atrás
Recomendou um alvo de transferência 14d atrás
Participando de desenvolvimento profissional 21d atrás

Monitorando agora

130
Jogador Clube Status Habilidade Confiança Observado Última observação Último voto
Yulián Montaño Depor Ativo 70 / 87 65% 1 21.06.2027 Aprovar
Darwin Torres Barranquilla Ativo 78 / 86 65% 1 07.12.2026 Aprovar
Daniel Amador Chiapas Ativo 107 / 94 40% 1 29.11.2026 -
Antonio Salado Ospitaletto Ativo 96 / 81 40% 1 29.11.2026 -
Matías Contrera Hrvatski Dragovoljac Ativo 91 / 108 40% 6 28.11.2026 -
Daniel Vašulín Zbrojovka Brno Ativo 102 / 116 40% 1 28.11.2026 -
José Alvarado Leon Ativo 102 / 119 40% 1 28.11.2026 -
Misael Sosa Godoy Cruz Ativo 111 / 113 40% 2 27.11.2026 -
Carlos Gutiérrez Dorados Ativo 113 / 108 40% 2 27.11.2026 -
Santiago Apa All Boys Ativo 112 / 102 40% 1 26.11.2026 -
Lautaro Gordillo Colegiales Ativo 117 / 105 40% 1 26.11.2026 -
Tomás González Estudiantes Ativo 108 / 103 40% 1 24.11.2026 -
Maico Quiroz Güemes Ativo 120 / 114 40% 1 24.11.2026 -
Gonzalo Valenzuela Radnicki Nis Ativo 109 / 97 40% 1 24.11.2026 -
Pedro Ramírez Deportivo Riestra Ativo 112 / 120 40% 3 21.11.2026 -
Ariel Castellano Alvarado Ativo 103 / 100 40% 1 21.11.2026 -
Rômulo Tigres Ativo 114 / 113 40% 1 21.11.2026 -
Mariano Bracamonte Deportivo Riestra Ativo 117 / 113 40% 2 20.11.2026 -
Alejo Dramisino Atlanta Ativo 119 / 118 40% 1 20.11.2026 -
Andi Vidal Irkutsk Ativo 75 / 85 40% 1 20.11.2026 -
Favio Cabral Mitre Ativo 112 / 126 40% 2 16.11.2026 -
David Mazuch FK Senica Ativo 112 / 103 40% 1 16.11.2026 -
Blas Armoa Gimnasia y Esgrima Ativo 116 / 126 40% 1 14.11.2026 -
Maximiliano Meléndez Chacarita Juniors Ativo 112 / 120 40% 2 12.11.2026 -
Santiago Martínez Godoy Cruz Ativo 119 / 107 40% 1 12.11.2026 -
Agustín Paz Progreso Ativo 121 / 105 40% 1 12.11.2026 -
Gabriel Monjes Hamrun Spartans Ativo 83 / 96 40% 1 12.11.2026 -
Bruno Larregui Juventud Ativo 126 / 117 40% 3 11.11.2026 -
Alex Vigo Independiente Rivadavia Ativo 115 / 118 40% 1 09.11.2026 -
Gianluca Pugliese Güemes Ativo 114 / 118 40% 1 09.11.2026 -
Renzo Reynaga Patronato Ativo 117 / 106 40% 1 09.11.2026 -
Alexander Díaz Deportivo Riestra Ativo 118 / 119 40% 4 07.11.2026 -
Matías Viguet Maipú Ativo 119 / 120 40% 2 07.11.2026 -
Elías Pereyra Barracas Central Ativo 110 / 118 40% 1 07.11.2026 -
Alejo Montero Newell's Old Boys Ativo 127 / 116 40% 1 06.11.2026 -
Luis Olivera Defensores Unidos Ativo 118 / 104 40% 1 06.11.2026 -
Jorge Obregón Deportivo Pasto Ativo 120 / 122 40% 1 05.11.2026 -
Matías Vargas Gimnasia y Esgrima Ativo 135 / 122 40% 2 04.11.2026 -
Federico Versaci Talleres Ativo 113 / 108 40% 2 03.11.2026 -
Rodrigo López Pumas UNAM Ativo 102 / 116 40% 1 03.11.2026 -
Enzo Silcan Almagro Ativo 108 / 114 40% 3 02.11.2026 -
Gastón Moreyra Almirante Brown Ativo 105 / 109 40% 1 02.11.2026 -
Andrés Montaño Cruz Azul Ativo 114 / 130 40% 1 02.11.2026 -
Nicolás Retamar Ferro Carril Oeste Ativo 123 / 110 40% 2 01.11.2026 -
Juan Pablo Gallego Fehervar Ativo 119 / 98 40% 2 31.10.2026 -
Ignacio Vallejos Colegiales Ativo 117 / 115 40% 1 30.10.2026 -
Franco Vedoya Central Norte Ativo 119 / 114 40% 1 30.10.2026 -
Martín Campos Ferro Carril Oeste Ativo 116 / 110 40% 1 30.10.2026 -
Esteban Obregón Montevideo City Torque Ativo 121 / 121 40% 3 29.10.2026 -
Rhian Brewster Oleksandriya Ativo 126 / 120 40% 1 28.10.2026 -
Marcus Vinicius Deportivo Pereira Ativo 117 / 103 40% 1 28.10.2026 -
Matías Laurino Gornik Leczna Ativo 82 / 101 40% 1 27.10.2026 -
Leandro Suhr Boston River Ativo 120 / 113 40% 1 27.10.2026 -
Facundo Lencioni Gimnasia y Esgrima Ativo 122 / 126 40% 1 25.10.2026 -
Jonathan Pérez Guadalajara Ativo 124 / 111 40% 1 25.10.2026 -
Gastón Verón Argentinos Juniors Ativo 121 / 111 40% 1 23.10.2026 -
Alejandro Piedrahita Deportivo Pereira Ativo 129 / 132 40% 2 21.10.2026 -
Luca Franco Arsenal Ativo 102 / 113 40% 1 19.10.2026 -
Gaspar Duarte Rosario Central Ativo 115 / 119 40% 1 19.10.2026 -
Brahian Cuello Unión de Santa Fe Ativo 109 / 119 40% 1 18.10.2026 -
Robertino Giacomini Panserraikos Ativo 105 / 108 40% 2 17.10.2026 -
Camilo Machado Madryn Ativo 104 / 105 40% 1 17.10.2026 -
Julián Brea Cobresal Ativo 97 / 112 40% 5 15.10.2026 -
Fernando Mimbacas Juventud Ativo 109 / 102 40% 1 15.10.2026 -
Federico Bisanz Atlanta Ativo 111 / 109 40% 1 15.10.2026 -
Ezequiel Cañete Huachipato Ativo 110 / 122 40% 4 14.10.2026 -
Ulises Sánchez Gimnasia y Esgrima Ativo 130 / 124 40% 1 14.10.2026 -
Agustín Gallo Tristán Suárez Ativo 112 / 116 40% 1 10.10.2026 -
Alejo Cruz Juventud Ativo 111 / 120 40% 1 08.10.2026 -
Emerson Batalla Atletico Bucaramanga Ativo 133 / 113 40% 1 08.10.2026 -
Luciano Cosentino Wanderers Ativo 125 / 127 40% 3 07.10.2026 -
Julian Herrera Cortulua Ativo 120 / 120 40% 4 07.10.2026 -
Maximiliano Rueda Patronato Ativo 118 / 113 40% 2 05.10.2026 -
Ramón González Almirante Brown Ativo 121 / 115 40% 1 05.10.2026 -
Lisandro Cabrera Maipú Ativo 123 / 119 40% 1 03.10.2026 -
Ramiro Ruiz Rodríguez Atlético Tucumán Ativo 115 / 124 40% 3 02.10.2026 -
Iñaki Larthirigoyen San Telmo Ativo 107 / 123 40% 1 02.10.2026 -
Vicente Poggi Godoy Cruz Ativo 128 / 117 40% 1 27.09.2026 -
Agustín Amado Boston River Ativo 107 / 117 40% 1 25.09.2026 -
Brian Calderara Chacarita Juniors Ativo 107 / 114 40% 1 25.09.2026 -
Alexis Melo All Boys Ativo 102 / 118 40% 1 23.09.2026 -
César Magallan Estudiantes de Merida Ativo 105 / 107 40% 2 21.09.2026 -
Erik de los Santos Racing Ativo 118 / 107 40% 1 21.09.2026 -
Agustín Maidana San Marcos de Arica Ativo 112 / 114 40% 2 20.09.2026 -
Milton Valenzuela Atlas Ativo 125 / 116 40% 1 20.09.2026 -
Alexis Gutiérrez Club America Ativo 130 / 115 40% 2 19.09.2026 -
Jonás Luna Wanderers Ativo 116 / 113 40% 1 19.09.2026 -
Nicolás Latorre Miramar Misiones Ativo 102 / 114 40% 1 17.09.2026 -
Alan García Wanderers Ativo 119 / 118 40% 1 17.09.2026 -
Pablo Aránguiz Union Espanola Ativo 112 / 105 40% 1 16.09.2026 -
Christian Larotonda Caracas Ativo 121 / 110 40% 1 16.09.2026 -
José Rivera Universitario Ativo 116 / 113 40% 1 15.09.2026 -
Diego Sánchez Progreso Ativo 97 / 95 40% 1 15.09.2026 -
Yerko Leiva Union La Calera Ativo 109 / 111 40% 2 14.09.2026 -
Iván Torregrosa Sibenik Ativo 76 / 75 40% 1 14.09.2026 -
Delvin Alfonzo Deportivo Tachira Ativo 122 / 105 40% 2 13.09.2026 -
Nestor Romo Veracruz Ativo 93 / 121 40% 1 13.09.2026 -
José Alberti Wanderers Ativo 115 / 117 40% 1 10.09.2026 -
Juan Romero Olimpia Ativo 120 / 107 40% 2 09.09.2026 -
Ekain Orobengoa Real Sociedad Ativo 101 / 103 40% 1 09.09.2026 -
Iván Maggi Sportivo Luqueno Ativo 118 / 113 40% 2 07.09.2026 -
Michael Vadulli Audax Italiano Ativo 105 / 111 40% 1 05.09.2026 -
José Barragán Zamora Ativo 103 / 90 40% 1 05.09.2026 -
Marco Collao Audax Italiano Ativo 113 / 107 40% 1 02.09.2026 -
Esteban Valencia Cobresal Ativo 115 / 108 40% 2 29.08.2026 -
César González Iquique Ativo 102 / 98 40% 1 29.08.2026 -
Bryan Rivera Estudiantes de Merida Ativo 108 / 102 40% 1 27.08.2026 -
Lucas González Nacional Ativo 100 / 98 40% 1 26.08.2026 -
Sebastián Parada San Luis Ativo 90 / 92 40% 1 26.08.2026 -
Mauricio Márquez Caracas Ativo 106 / 102 40% 2 23.08.2026 -
Jeriel De Santis Caracas Ativo 98 / 102 40% 2 22.08.2026 -
Ricardo Echeverría Santos Laguna Ativo 117 / 106 40% 1 21.08.2026 -
Alejandro Organista Puebla Ativo 94 / 98 40% 1 21.08.2026 -
Duván Rodríguez Jaguares Ativo 115 / 115 52% 1 / 1m 19.08.2026 -
Jáder Maza Ativo 119 / 119 30% 1 / 1m 19.08.2026 -
Tobías Donsanti OB Ativo 85 / 112 40% 1 18.08.2026 -
Santiago Toloza O'Higgins Ativo 118 / 115 40% 1 18.08.2026 -
Bryan Carvallo Cobresal Ativo 110 / 105 40% 1 18.08.2026 -
Santiago Simón Toluca Ativo 124 / 126 40% 1 18.08.2026 -
Junior Paredes Trujillanos Ativo 104 / 110 40% 1 16.08.2026 -
Alan Cervantes Club America Ativo 114 / 127 40% 1 14.08.2026 -
Luis Iberico Sporting Cristal Ativo 113 / 119 40% 1 14.08.2026 -
Paolo Reyna Universitario Ativo 108 / 111 40% 1 10.08.2026 -
Ronaldo Peña Deportivo Lara Ativo 103 / 101 40% 1 10.08.2026 -
Facundo Kalinger Huracán Ativo 110 / 104 40% 1 07.08.2026 -
Jorge Murrugarra Universitario Ativo 112 / 119 40% 1 07.08.2026 -
Diego Crego Independiente Rivadavia Ativo 119 / 108 40% 1 07.08.2026 -
Cristhián Rivas Estudiantes de Merida Ativo 111 / 119 40% 1 04.08.2026 -
Christian Ebere Cruz Azul Ativo 113 / 134 40% 1 04.08.2026 -
Brayan Garrido Iquique Ativo 107 / 104 40% 1 04.08.2026 -